Waarnemingen

Advertentie
Mijn weer
Bolzano, Italië (16020): temperatuur & dauwpunt: 18.10.2017 09:00:00 - 24.10.2017 09:00:00 (CEST)Bolzano, Italië (16020): windsnelheid: 18.10.2017 09:00:00 - 24.10.2017 09:00:00 (CEST)Bolzano, Italië (16020): windrichting: 18.10.2017 09:00:00 - 24.10.2017 09:00:00 (CEST)Bolzano, Italië (16020): luchtdruk: 18.10.2017 09:00:00 - 24.10.2017 09:00:00 (CEST)Bolzano, Italië (16020): zicht: 18.10.2017 09:00:00 - 24.10.2017 09:00:00 (CEST)Bolzano, Italië (16020): neerslag: 18.10.2017 09:00:00 - 24.10.2017 09:00:00 (CEST)
Datum & Tijd tt [°C] td [°C] ff [km/u] ff [kn] dd ppp [hPa] vv [km] rr [mm]
24.10.2017 09:00:00 8,0 1,0 9 5 Z - 10 -
24.10.2017 08:00:00 9,7 0,3 5 3 - 1021,8 10 0,0
24.10.2017 07:00:00 11,0 1,0 5 3 - - 10 -
24.10.2017 06:00:00 - - - - - - - -
24.10.2017 05:00:00 10,2 0,2 8 4 WZW 1020,3 - -
24.10.2017 04:00:00 - - - - - - - -
24.10.2017 03:00:00 - - - - - - - -
24.10.2017 02:00:00 10,4 -0,4 11 6 WNW 1019,8 - 0,0
24.10.2017 01:00:00 - - - - - - - -
24.10.2017 00:00:00 - - - - - - - -
23.10.2017 23:00:00 14,4 -2,6 9 5 - 1018,5 10 -
23.10.2017 22:00:00 12,0 -1,0 5 3 - - 10 -
23.10.2017 21:00:00 15,0 -3,0 9 5 NNO - 10 -
23.10.2017 20:00:00 14,9 -2,9 15 8 - 1017,0 10 0,0
23.10.2017 19:00:00 15,0 -3,0 11 6 NO - 10 -
23.10.2017 18:00:00 17,0 -4,0 21 11 NO - 10 -
23.10.2017 17:00:00 17,7 -4,3 16 9 - 1014,6 10 -
23.10.2017 16:00:00 18,0 -5,0 22 12 NO - 10 -
23.10.2017 15:00:00 19,0 -4,0 21 11 NO - 10 -
23.10.2017 14:00:00 18,8 -4,3 18 10 NO 1013,3 10 0,0
23.10.2017 13:00:00 18,0 -4,0 18 10 NO - 10 -
23.10.2017 12:00:00 18,0 -3,0 15 8 NNO - 10 -
23.10.2017 11:00:00 16,8 -2,9 9 5 - 1013,5 10 -
23.10.2017 10:00:00 12,0 2,0 4 2 - - 10 -
23.10.2017 09:00:00 6,0 2,0 5 3 - - 10 -
23.10.2017 08:00:00 5,4 1,4 4 2 - 1014,7 10 0,0
23.10.2017 07:00:00 7,0 1,0 4 2 - - 10 -
23.10.2017 06:00:00 - - - - - - - -
23.10.2017 05:00:00 5,5 2,1 4 2 ZZO 1014,1 - -
23.10.2017 04:00:00 - - - - - - - -
23.10.2017 03:00:00 - - - - - - - -
23.10.2017 02:00:00 8,0 3,4 4 2 O 1013,5 - 0,0
23.10.2017 01:00:00 - - - - - - - -
23.10.2017 00:00:00 - - - - - - - -
22.10.2017 23:00:00 11,3 3,7 4 2 - 1013,3 10 -
22.10.2017 22:00:00 12,0 4,0 16 9 NNW - 10 -
22.10.2017 21:00:00 14,0 1,0 8 4 NNO - 10 -
22.10.2017 20:00:00 12,2 5,1 9 5 N 1013,8 10 -
22.10.2017 19:00:00 13,0 5,0 9 5 - - 10 -
22.10.2017 18:00:00 12,0 9,0 9 5 NW - 10 -
22.10.2017 17:00:00 12,8 8,3 13 7 WNW 1012,7 10 -
22.10.2017 16:00:00 13,0 10,0 4 2 - - 10 -
22.10.2017 15:00:00 13,0 9,0 9 5 N - 10 -
22.10.2017 14:00:00 13,0 9,5 13 7 NNW 1013,3 10 -
22.10.2017 13:00:00 13,0 11,0 4 2 NW - 10 -
22.10.2017 12:00:00 13,0 11,0 0 0 N - 7 -
22.10.2017 11:00:00 11,9 11,8 0 0 N 1015,3 3,5 -
22.10.2017 10:00:00 11,0 11,0 0 0 N - 3,0 -
22.10.2017 09:00:00 11,0 11,0 0 0 N - 2,0 -
22.10.2017 08:00:00 10,9 10,9 0 0 N 1015,6 2,0 -
22.10.2017 07:00:00 11,0 11,0 0 0 N - 3,5 -
22.10.2017 06:00:00 - - - - - - - -
22.10.2017 05:00:00 10,9 10,7 4 2 WZW 1016,0 - -
22.10.2017 04:00:00 - - - - - - - -
22.10.2017 03:00:00 - - - - - - - -
22.10.2017 02:00:00 12,4 9,3 5 3 N 1018,5 - 0,0
22.10.2017 01:00:00 - - - - - - - -
22.10.2017 00:00:00 - - - - - - - -
21.10.2017 23:00:00 10,8 9,7 0 0 N 1019,2 6 -
21.10.2017 22:00:00 10,0 8,0 4 2 - - 6 -
21.10.2017 21:00:00 11,0 9,0 2 1 - - 6 -
21.10.2017 20:00:00 12,3 9,8 5 3 - 1018,8 7 0,0
21.10.2017 19:00:00 14,0 10,0 8 4 NW - 8 -
21.10.2017 18:00:00 16,0 10,0 0 0 N - 7 -
21.10.2017 17:00:00 17,7 9,4 2 1 - 1017,5 8 -
21.10.2017 16:00:00 18,0 9,0 4 2 - - 8 -
21.10.2017 15:00:00 19,0 9,0 2 1 ZZW - 6 -
21.10.2017 14:00:00 16,9 8,5 0 0 N 1018,9 5 0,0
21.10.2017 13:00:00 15,0 9,0 4 2 ZO - 5 -
21.10.2017 12:00:00 13,0 8,0 0 0 N - 6 -
21.10.2017 11:00:00 12,3 8,5 0 0 N 1022,3 7 -
21.10.2017 10:00:00 10,0 9,0 0 0 N - 5 -
21.10.2017 09:00:00 8,0 8,0 0 0 N - 4,5 -
21.10.2017 08:00:00 6,7 6,7 0 0 N 1022,5 2,5 0,0
21.10.2017 07:00:00 7,0 6,0 0 0 N - 2,5 -
21.10.2017 06:00:00 - - - - - - - -
21.10.2017 05:00:00 6,8 6,5 2 1 ZO 1022,1 - -
21.10.2017 04:00:00 - - - - - - - -
21.10.2017 03:00:00 - - - - - - - -
21.10.2017 02:00:00 8,7 7,9 2 1 N 1022,2 - 0,0
21.10.2017 01:00:00 - - - - - - - -
21.10.2017 00:00:00 - - - - - - - -
20.10.2017 23:00:00 8,8 8,1 0 0 N 1021,8 10 -
20.10.2017 22:00:00 10,0 8,0 4 2 - - 10 -
20.10.2017 21:00:00 11,0 8,0 0 0 N - 10 -
20.10.2017 20:00:00 11,3 8,3 0 0 N 1020,2 10 0,0
20.10.2017 19:00:00 12,0 9,0 0 0 N - 10 -
20.10.2017 18:00:00 17,0 10,0 0 0 N - 10 -
20.10.2017 17:00:00 19,0 7,1 0 0 N 1017,1 10 -
20.10.2017 16:00:00 20,0 8,0 8 4 Z - 10 -
20.10.2017 15:00:00 19,0 8,0 5 3 Z - 10 -
20.10.2017 14:00:00 18,4 7,0 5 3 ZZW 1018,1 10 0,0
20.10.2017 13:00:00 16,0 7,0 2 1 ZO - 10 -
20.10.2017 12:00:00 14,0 7,0 2 1 ONO - 10 -
20.10.2017 11:00:00 12,7 6,3 2 1 ONO 1021,0 10 -
20.10.2017 10:00:00 10,0 7,0 2 1 N - 10 -
20.10.2017 09:00:00 5,0 5,0 2 1 W - 10 -
20.10.2017 08:00:00 5,9 5,7 0 0 N 1021,6 10 0,0
20.10.2017 07:00:00 6,0 5,0 0 0 N - 10 -
20.10.2017 06:00:00 - - - - - - - -
20.10.2017 05:00:00 5,4 5,1 4 2 NNW 1021,4 - -
20.10.2017 04:00:00 - - - - - - - -
20.10.2017 03:00:00 - - - - - - - -
20.10.2017 02:00:00 7,0 6,6 2 1 N 1020,8 - 0,0
20.10.2017 01:00:00 - - - - - - - -
20.10.2017 00:00:00 - - - - - - - -
19.10.2017 23:00:00 7,9 6,0 2 1 - 1020,3 10 -
19.10.2017 22:00:00 10,0 7,0 0 0 N - 10 -
19.10.2017 21:00:00 10,0 7,0 0 0 N - 10 -
19.10.2017 20:00:00 11,6 7,3 2 1 - 1018,4 10 0,0
19.10.2017 19:00:00 13,0 8,0 4 2 - - 10 -
19.10.2017 18:00:00 17,0 8,0 0 0 N - 10 -
19.10.2017 17:00:00 19,9 8,3 4 2 - 1015,4 10 -
19.10.2017 16:00:00 20,0 7,0 4 2 - - 10 -
19.10.2017 15:00:00 19,0 7,0 0 0 N - 10 -
19.10.2017 14:00:00 17,8 5,7 4 2 - 1017,4 10 0,0
19.10.2017 13:00:00 16,0 8,0 2 1 - - 10 -
19.10.2017 12:00:00 15,0 7,0 0 0 N - 10 -
19.10.2017 11:00:00 13,4 5,5 0 0 N 1020,7 10 -
19.10.2017 10:00:00 10,0 7,0 0 0 N - 10 -
19.10.2017 09:00:00 6,0 4,0 4 2 - - 10 -
19.10.2017 08:00:00 4,8 4,3 0 0 N 1021,2 10 0,0
19.10.2017 07:00:00 5,0 5,0 0 0 N - 10 -
19.10.2017 06:00:00 - - - - - - - -
19.10.2017 05:00:00 5,4 4,5 0 0 N 1021,0 - -
19.10.2017 04:00:00 - - - - - - - -
19.10.2017 03:00:00 - - - - - - - -
19.10.2017 02:00:00 6,8 6,1 2 1 NW 1021,0 - 0,0
19.10.2017 01:00:00 - - - - - - - -
19.10.2017 00:00:00 - - - - - - - -
18.10.2017 23:00:00 8,2 6,2 0 0 N 1020,1 10 -
18.10.2017 22:00:00 9,0 7,0 4 2 - - 10 -
18.10.2017 21:00:00 11,0 8,0 2 1 - - 10 -
18.10.2017 20:00:00 10,5 7,9 2 1 - 1018,2 10 0,0
18.10.2017 19:00:00 14,0 9,0 4 2 NNW - 10 -
18.10.2017 18:00:00 18,0 9,0 5 3 WNW - 10 -
18.10.2017 17:00:00 20,9 6,6 5 3 - 1015,7 10 -
18.10.2017 16:00:00 22,0 6,0 5 3 - - 10 -
18.10.2017 15:00:00 20,0 7,0 5 3 - - 10 -
18.10.2017 14:00:00 20,1 6,4 4 2 ZW 1017,4 10 0,0
18.10.2017 13:00:00 18,0 6,0 4 2 - - 10 -
18.10.2017 12:00:00 15,0 7,0 2 1 - - 10 -
18.10.2017 11:00:00 15,2 7,3 4 2 - 1021,1 10 -
18.10.2017 10:00:00 10,0 8,0 0 0 N - 10 -
18.10.2017 09:00:00 6,0 5,0 0 0 N - 10 -

tt = temperatuur
td = dauwpunt
ff = windsnelheid
dd = windrichting
ppp = luchtdruk
vv = zicht
rr = neerslag

Weerstations in de omgeving